WZZ2114 EPWA-EKCH

Flight info

Callsign WZZ2114
Flight time 1h 4m
Altitude 36000
Route OLILA L621 LUSID DCT ROE M743 TIDVU
Aircraft A320/M-SDE1E2E3FGIJ1J4RWXY/LB1

Departure

Time 2026-05-01 09:03
Airport Warsaw Chopin Airport (EPWA)

Arrival

Time 2026-05-01 10:07
Airport Copenhagen Kastrup Airport (EKCH)
Time Latitude Longitude Altitude Speed Heading
2026-05-01 08:29 52.17770 20.96258 361 ft 0 kts 243°
2026-05-01 08:53 52.17770 20.96260 352 ft 2 kts 243°
2026-05-01 08:53 52.17778 20.96285 362 ft 2 kts 243°
2026-05-01 08:53 52.17787 20.96307 358 ft 2 kts 210°
2026-05-01 08:54 52.17802 20.96312 357 ft 2 kts 159°
2026-05-01 08:54 52.17808 20.96310 357 ft 0 kts 154°
2026-05-01 08:57 52.17799 20.96317 357 ft 3 kts 151°
2026-05-01 08:57 52.17771 20.96344 355 ft 6 kts 149°
2026-05-01 08:58 52.17725 20.96389 352 ft 9 kts 150°
2026-05-01 08:58 52.17658 20.96441 354 ft 12 kts 154°
2026-05-01 08:58 52.17577 20.96519 355 ft 15 kts 147°
2026-05-01 08:58 52.17483 20.96582 356 ft 15 kts 184°
2026-05-01 08:59 52.17379 20.96648 352 ft 18 kts 151°
2026-05-01 08:59 52.17262 20.96746 358 ft 20 kts 153°
2026-05-01 08:59 52.17139 20.96858 355 ft 19 kts 150°
2026-05-01 08:59 52.17011 20.96968 357 ft 22 kts 153°
2026-05-01 09:00 52.16872 20.97089 354 ft 22 kts 152°
2026-05-01 09:00 52.16741 20.97207 357 ft 21 kts 151°
2026-05-01 09:00 52.16616 20.97312 358 ft 20 kts 152°
2026-05-01 09:00 52.16537 20.97502 359 ft 22 kts 115°
2026-05-01 09:01 52.16483 20.97696 355 ft 18 kts 116°
2026-05-01 09:01 52.16432 20.97808 354 ft 11 kts 165°
2026-05-01 09:01 52.16383 20.97782 355 ft 0 kts 205°
2026-05-01 09:02 52.16354 20.97760 352 ft 10 kts 205°
2026-05-01 09:02 52.16305 20.97675 356 ft 12 kts 269°
2026-05-01 09:02 52.16317 20.97624 359 ft 0 kts 298°
2026-05-01 09:03 52.16326 20.97598 353 ft 17 kts 298°
2026-05-01 09:03 52.16489 20.97012 354 ft 93 kts 295°
2026-05-01 09:03 52.16843 20.95762 380 ft 145 kts 295°
2026-05-01 09:03 52.17246 20.94305 1106 ft 139 kts 295°
2026-05-01 09:04 52.17651 20.92881 1772 ft 142 kts 297°
2026-05-01 09:04 52.18095 20.91324 2198 ft 160 kts 298°
2026-05-01 09:04 52.18911 20.89981 2554 ft 182 kts 336°
2026-05-01 09:04 52.20158 20.89149 2905 ft 208 kts 337°
2026-05-01 09:05 52.21566 20.88103 3404 ft 236 kts 332°
2026-05-01 09:05 52.22841 20.86256 4191 ft 252 kts 314°
2026-05-01 09:05 52.24037 20.84131 5257 ft 256 kts 316°
2026-05-01 09:05 52.25277 20.82015 6306 ft 259 kts 317°
2026-05-01 09:06 52.26707 20.80233 7266 ft 260 kts 336°
2026-05-01 09:06 52.28411 20.79338 8246 ft 257 kts 355°
2026-05-01 09:06 52.30185 20.78966 9282 ft 259 kts 353°
2026-05-01 09:06 52.31969 20.78414 10272 ft 262 kts 352°
2026-05-01 09:07 52.33793 20.77809 10870 ft 277 kts 353°
2026-05-01 09:07 52.35777 20.77581 11296 ft 293 kts
2026-05-01 09:07 52.37828 20.77782 12057 ft 298 kts
2026-05-01 09:07 52.39909 20.78012 12881 ft 301 kts
2026-05-01 09:08 52.42000 20.78258 13756 ft 302 kts
2026-05-01 09:08 52.44105 20.78510 14563 ft 305 kts
2026-05-01 09:08 52.46229 20.78736 15300 ft 308 kts
2026-05-01 09:08 52.48381 20.78266 15986 ft 319 kts 349°
2026-05-01 09:09 52.50430 20.76729 16673 ft 332 kts 333°
2026-05-01 09:09 52.52185 20.74130 17366 ft 350 kts 316°
2026-05-01 09:09 52.53650 20.70890 18059 ft 356 kts 314°
2026-05-01 09:09 52.55114 20.67584 18732 ft 360 kts 314°
2026-05-01 09:10 52.56593 20.64239 19342 ft 364 kts 314°
2026-05-01 09:10 52.58085 20.60861 19960 ft 367 kts 314°
2026-05-01 09:10 52.59592 20.57455 20598 ft 370 kts 314°
2026-05-01 09:10 52.61114 20.54024 21218 ft 373 kts 314°
2026-05-01 09:11 52.62650 20.50562 21796 ft 376 kts 314°
2026-05-01 09:11 52.64175 20.47113 22354 ft 379 kts 314°
2026-05-01 09:11 52.65731 20.43581 22885 ft 383 kts 314°
2026-05-01 09:11 52.67297 20.40014 23461 ft 386 kts 314°
2026-05-01 09:12 52.68881 20.36411 24023 ft 389 kts 314°
2026-05-01 09:12 52.69957 20.33969 24338 ft 391 kts 314°
2026-05-01 09:12 52.72282 20.29478 24960 ft 389 kts 320°
2026-05-01 09:12 52.74100 20.26145 25429 ft 392 kts 320°
2026-05-01 09:13 52.75929 20.22783 25895 ft 395 kts 320°
2026-05-01 09:13 52.77767 20.19392 26361 ft 398 kts 319°
2026-05-01 09:13 52.79616 20.15975 26832 ft 400 kts 319°
2026-05-01 09:13 52.80870 20.13654 27143 ft 402 kts 319°
2026-05-01 09:14 52.82722 20.10159 27600 ft 406 kts 318°
2026-05-01 09:14 52.84533 20.06618 28046 ft 410 kts 317°
2026-05-01 09:14 52.86355 20.02972 28472 ft 413 kts 317°
2026-05-01 09:14 52.88183 19.99287 28909 ft 416 kts 317°
2026-05-01 09:15 52.90025 19.95577 29342 ft 418 kts 317°
2026-05-01 09:15 52.91883 19.91847 29777 ft 421 kts 317°
2026-05-01 09:15 52.93756 19.88095 30213 ft 424 kts 317°
2026-05-01 09:15 52.95645 19.84318 30611 ft 427 kts 317°
2026-05-01 09:16 52.97547 19.80519 31013 ft 429 kts 317°
2026-05-01 09:16 52.99458 19.76697 31393 ft 431 kts 317°
2026-05-01 09:16 53.01378 19.72853 31790 ft 434 kts 317°
2026-05-01 09:17 53.05233 19.65103 32648 ft 435 kts 316°
2026-05-01 09:17 53.07180 19.61291 33208 ft 431 kts 318°
2026-05-01 09:17 53.11284 19.54143 34327 ft 424 kts 321°
2026-05-01 09:18 53.13380 19.50701 34809 ft 423 kts 322°
2026-05-01 09:18 53.17551 19.43818 35673 ft 422 kts 321°
2026-05-01 09:19 53.21661 19.36826 36322 ft 423 kts 320°
2026-05-01 09:19 53.23684 19.33288 36371 ft 420 kts 319°
2026-05-01 09:20 53.29420 19.22283 36369 ft 418 kts 315°
2026-05-01 09:21 53.36982 19.07522 36370 ft 417 kts 316°
2026-05-01 09:21 53.42690 18.96501 36380 ft 418 kts 316°
2026-05-01 09:22 53.50280 18.81720 36365 ft 418 kts 316°
2026-05-01 09:23 53.55420 18.69766 36385 ft 422 kts 308°
2026-05-01 09:24 53.60282 18.57406 36393 ft 422 kts 308°
2026-05-01 09:25 53.66719 18.40934 36382 ft 422 kts 308°
2026-05-01 09:26 53.71540 18.28510 36388 ft 422 kts 308°
2026-05-01 09:26 53.76353 18.16064 36390 ft 422 kts 308°
2026-05-01 09:27 53.81145 18.03580 36372 ft 422 kts 307°
2026-05-01 09:28 53.84342 17.95236 36373 ft 422 kts 307°
2026-05-01 09:28 53.87532 17.86880 36379 ft 422 kts 307°
2026-05-01 09:29 53.92316 17.74325 36385 ft 423 kts 307°
2026-05-01 09:30 53.97057 17.61774 36389 ft 423 kts 307°
2026-05-01 09:30 54.01810 17.49166 36383 ft 422 kts 306°
2026-05-01 09:31 54.04964 17.40741 36395 ft 422 kts 306°
2026-05-01 09:32 54.09683 17.28084 36398 ft 422 kts 306°
2026-05-01 09:32 54.14390 17.15398 36392 ft 422 kts 306°
2026-05-01 09:33 54.17522 17.06932 36398 ft 422 kts 306°
2026-05-01 09:34 54.22210 16.94197 36409 ft 422 kts 306°
2026-05-01 09:34 54.27058 16.81646 36409 ft 420 kts 310°
2026-05-01 09:35 54.32417 16.69779 36399 ft 420 kts 311°
2026-05-01 09:36 54.35963 16.61818 36409 ft 420 kts 310°
2026-05-01 09:36 54.39448 16.53757 36416 ft 421 kts 309°
2026-05-01 09:37 54.42923 16.45669 36423 ft 420 kts 309°
2026-05-01 09:37 54.48138 16.33563 36422 ft 420 kts 309°
2026-05-01 09:38 54.53343 16.21440 36411 ft 420 kts 309°
2026-05-01 09:39 54.58527 16.09265 36413 ft 420 kts 309°
2026-05-01 09:39 54.61981 16.01134 36417 ft 420 kts 309°
2026-05-01 09:40 54.67157 15.88917 36417 ft 420 kts 308°
2026-05-01 09:41 54.70603 15.80747 36414 ft 420 kts 308°
2026-05-01 09:41 54.75750 15.68442 36392 ft 422 kts 308°
2026-05-01 09:42 54.77464 15.64300 36078 ft 424 kts 308°
2026-05-01 09:42 54.79172 15.60155 35617 ft 421 kts 308°
2026-05-01 09:42 54.82541 15.51952 34695 ft 412 kts 308°
2026-05-01 09:43 54.85821 15.43943 32939 ft 402 kts 308°
2026-05-01 09:43 54.87429 15.40002 32102 ft 399 kts 309°
2026-05-01 09:43 54.89029 15.36079 31618 ft 396 kts 308°
2026-05-01 09:44 54.92061 15.28224 30761 ft 393 kts 300°
2026-05-01 09:44 54.93276 15.23901 30291 ft 392 kts 299°
2026-05-01 09:44 54.94443 15.19709 29811 ft 389 kts 299°
2026-05-01 09:45 54.95619 15.15487 29336 ft 386 kts 299°
2026-05-01 09:45 54.97941 15.07126 28453 ft 381 kts 299°
2026-05-01 09:45 54.99090 15.02986 28029 ft 379 kts 299°
2026-05-01 09:46 55.00231 14.98871 27606 ft 376 kts 299°
2026-05-01 09:46 55.01361 14.94783 27178 ft 373 kts 299°
2026-05-01 09:46 55.02483 14.90720 26739 ft 371 kts 299°
2026-05-01 09:46 55.03597 14.86678 26301 ft 369 kts 299°
2026-05-01 09:47 55.04701 14.82650 25863 ft 367 kts 298°
2026-05-01 09:47 55.05798 14.78644 25446 ft 365 kts 298°
2026-05-01 09:47 55.06893 14.74657 25038 ft 363 kts 299°
2026-05-01 09:47 55.08015 14.70736 24625 ft 360 kts 300°
2026-05-01 09:48 55.09159 14.66868 24209 ft 358 kts 301°
2026-05-01 09:48 55.10308 14.63030 23765 ft 356 kts 301°
2026-05-01 09:48 55.11447 14.59212 23296 ft 353 kts 301°
2026-05-01 09:48 55.12573 14.55414 22844 ft 351 kts 300°
2026-05-01 09:49 55.13684 14.51634 22400 ft 349 kts 300°
2026-05-01 09:49 55.14782 14.47874 21964 ft 346 kts 300°
2026-05-01 09:49 55.15870 14.44135 21528 ft 344 kts 300°
2026-05-01 09:49 55.16948 14.40418 21092 ft 342 kts 299°
2026-05-01 09:50 55.18020 14.36716 20678 ft 339 kts 299°
2026-05-01 09:50 55.19085 14.33054 20276 ft 337 kts 299°
2026-05-01 09:50 55.20147 14.29408 19875 ft 335 kts 299°
2026-05-01 09:50 55.21200 14.25777 19540 ft 332 kts 299°
2026-05-01 09:51 55.22245 14.22158 19299 ft 333 kts 299°
2026-05-01 09:51 55.23278 14.18565 18981 ft 329 kts 298°
2026-05-01 09:51 55.24304 14.14988 18555 ft 328 kts 298°
2026-05-01 09:51 55.25325 14.11422 18107 ft 327 kts 298°
2026-05-01 09:52 55.26343 14.07872 17684 ft 325 kts 298°
2026-05-01 09:52 55.27358 14.04335 17261 ft 323 kts 298°
2026-05-01 09:52 55.28363 14.00822 16861 ft 322 kts 298°
2026-05-01 09:52 55.29364 13.97318 16446 ft 321 kts 298°
2026-05-01 09:53 55.30363 13.93825 16038 ft 320 kts 298°
2026-05-01 09:53 55.31345 13.90387 15632 ft 319 kts 297°
2026-05-01 09:53 55.32337 13.86913 15228 ft 318 kts 297°
2026-05-01 09:53 55.33328 13.83443 14824 ft 317 kts 297°
2026-05-01 09:54 55.34313 13.79976 14425 ft 317 kts 297°
2026-05-01 09:54 55.35294 13.76511 14004 ft 317 kts 298°
2026-05-01 09:54 55.36271 13.73054 13581 ft 315 kts 298°
2026-05-01 09:54 55.37243 13.69615 13178 ft 313 kts 297°
2026-05-01 09:55 55.38209 13.66183 12766 ft 312 kts 298°
2026-05-01 09:55 55.39170 13.62773 12373 ft 311 kts 298°
2026-05-01 09:55 55.40127 13.59375 11972 ft 310 kts 297°
2026-05-01 09:55 55.41067 13.55972 11582 ft 309 kts 294°
2026-05-01 09:56 55.41737 13.52376 11185 ft 309 kts 288°
2026-05-01 09:56 55.42356 13.48775 10935 ft 304 kts 288°
2026-05-01 09:56 55.42964 13.45251 10634 ft 301 kts 288°
2026-05-01 09:56 55.43571 13.41731 10264 ft 300 kts 287°
2026-05-01 09:57 55.44177 13.38221 9885 ft 299 kts 287°
2026-05-01 09:57 55.44817 13.34767 9600 ft 294 kts 294°
2026-05-01 09:57 55.45935 13.31820 9345 ft 288 kts 315°
2026-05-01 09:57 55.47534 13.29747 8999 ft 285 kts 329°
2026-05-01 09:58 55.49221 13.27930 8695 ft 285 kts 329°
2026-05-01 09:58 55.50915 13.26114 8314 ft 285 kts 329°
2026-05-01 09:58 55.52608 13.24300 7942 ft 285 kts 329°
2026-05-01 09:58 55.54302 13.22480 7572 ft 284 kts 329°
2026-05-01 09:59 55.55950 13.20705 7230 ft 279 kts 328°
2026-05-01 09:59 55.57617 13.18904 6865 ft 276 kts 328°
2026-05-01 09:59 55.59223 13.17171 6483 ft 273 kts 328°
2026-05-01 09:59 55.60843 13.15424 6073 ft 273 kts 328°
2026-05-01 10:00 55.62456 13.13685 5666 ft 268 kts 327°
2026-05-01 10:00 55.64021 13.11989 5273 ft 261 kts 327°
2026-05-01 10:00 55.65562 13.10315 4873 ft 259 kts 327°
2026-05-01 10:00 55.67094 13.08652 4456 ft 256 kts 327°
2026-05-01 10:01 55.68581 13.07037 4047 ft 246 kts 328°
2026-05-01 10:01 55.70020 13.05499 3666 ft 237 kts 332°
2026-05-01 10:01 55.71456 13.04139 3260 ft 231 kts 322°
2026-05-01 10:01 55.72642 13.02305 3007 ft 219 kts 316°
2026-05-01 10:02 55.73731 13.00426 3000 ft 218 kts 315°
2026-05-01 10:02 55.74820 12.98532 3004 ft 218 kts 316°
2026-05-01 10:02 55.75535 12.97276 3001 ft 212 kts 313°
2026-05-01 10:02 55.76202 12.95005 3010 ft 212 kts 279°
2026-05-01 10:03 55.76076 12.92402 3011 ft 214 kts 258°
2026-05-01 10:03 55.75694 12.89885 2827 ft 213 kts 256°
2026-05-01 10:03 55.75250 12.87348 2616 ft 210 kts 249°
2026-05-01 10:03 55.74425 12.85260 2469 ft 207 kts 225°
2026-05-01 10:04 55.73361 12.83603 2348 ft 200 kts 224°
2026-05-01 10:04 55.72335 12.82006 2206 ft 193 kts 225°
2026-05-01 10:04 55.71354 12.80475 2106 ft 188 kts 225°
2026-05-01 10:04 55.70377 12.78950 2028 ft 188 kts 225°
2026-05-01 10:05 55.69397 12.77421 1831 ft 187 kts 224°
2026-05-01 10:05 55.68434 12.75922 1616 ft 178 kts 224°
2026-05-01 10:05 55.67557 12.74561 1404 ft 154 kts 225°
2026-05-01 10:05 55.66800 12.73384 1184 ft 138 kts 226°
2026-05-01 10:06 55.66092 12.72282 1011 ft 133 kts 224°
2026-05-01 10:06 55.65398 12.71201 818 ft 133 kts 223°
2026-05-01 10:06 55.64703 12.70116 644 ft 133 kts 221°
2026-05-01 10:06 55.64005 12.69032 435 ft 134 kts 220°
2026-05-01 10:07 55.63305 12.67947 254 ft 135 kts 219°
2026-05-01 10:07 55.62605 12.66861 93 ft 135 kts 220°
2026-05-01 10:07 55.61936 12.65825 21 ft 105 kts 221°
2026-05-01 10:07 55.61631 12.65325 16 ft 27 kts 238°
2026-05-01 10:08 55.61623 12.65003 16 ft 8 kts 294°
2026-05-01 10:08 55.61645 12.64950 16 ft 3 kts 316°
2026-05-01 10:08 55.61675 12.64898 17 ft 12 kts 315°
2026-05-01 10:09 55.61753 12.64802 19 ft 13 kts 340°
2026-05-01 10:09 55.61850 12.64793 18 ft 15 kts
2026-05-01 10:09 55.61955 12.64877 19 ft 17 kts 48°
2026-05-01 10:09 55.62046 12.64996 23 ft 17 kts 30°
2026-05-01 10:10 55.62118 12.65075 25 ft 2 kts 34°
2026-05-01 10:10 55.62118 12.65076 25 ft 0 kts 34°
2026-05-01 10:12 55.62139 12.65101 26 ft 5 kts 34°
2026-05-01 10:13 55.62176 12.65145 26 ft 8 kts 33°
2026-05-01 10:13 55.62246 12.65198 23 ft 14 kts
2026-05-01 10:13 55.62333 12.65198 21 ft 13 kts 357°
2026-05-01 10:14 55.62432 12.65221 22 ft 1 kts 45°
2026-05-01 10:14 55.62437 12.65254 20 ft 5 kts 79°
2026-05-01 10:14 55.62439 12.65354 19 ft 11 kts 89°
2026-05-01 10:14 55.62442 12.65507 18 ft 14 kts 87°
2026-05-01 10:15 55.62444 12.65630 18 ft 9 kts 88°
2026-05-01 10:15 55.62446 12.65724 17 ft 9 kts 87°
2026-05-01 10:15 55.62493 12.65766 16 ft 6 kts 358°
2026-05-01 10:15 55.62522 12.65765 16 ft 0 kts